Cloud_Cover
56 44 36 32 44 44 44 44 48 48 48 48 48 48 48 48 20 0 0 0 0 0 0 8 8 8 12 12 8 8 8 8 8 8 12 8 8 0 0 0 0 0 0 0 0 0 0 0 0 0 0 0 0 0 0 0 0 0 0 0 0 0 0 0 0 0 0 0 12
88 88 80 64 56 48 44 36 36 44 48 48 56 56 56 48 20 0 0 0 0 0 0 0 0 0 0 0 8 8 8 8 8 8 8 12 12 8 8 8 8 0 0 0 0 0 0 0 0 0 0 0 0 0 0 0 0 0 0 0 0 0 0 0 0 0 0 0 0
92 92 92 92 92 88 88 76 56 48 48 48 48 48 56 56 24 8 0 0 0 0 0 0 0 0 0 0 0 0 0 0 0 0 8 8 8 8 8 8 0 0 0 0 0 0 0 0 0 0 0 0 0 0 0 0 0 0 0 0 0 0 0 0 0 0 0 0 0
48 68 88 92 92 92 92 92 92 80 68 64 48 44 36 36 24 12 0 0 0 0 0 0 0 0 0 0 0 0 0 0 0 0 0 0 0 0 0 12 20 12 8 0 0 0 0 0 0 0 0 0 0 0 0 0 0 0 0 0 0 0 0 0 0 0 8 36 64
76 88 88 88 88 92 92 92 92 92 92 92 64 44 24 12 12 8 12 8 0 0 0 0 0 0 0 0 0 0 0 0 0 0 0 0 0 0 0 0 0 0 0 0 0 0 0 0 0 0 0 0 0 0 0 0 0 0 0 0 0 0 0 0 0 0 0 0 48
80 88 92 88 68 76 88 88 88 92 92 92 92 92 92 92 48 24 20 12 12 12 12 24 12 24 32 24 12 0 0 0 0 0 0 0 0 0 0 0 0 0 0 0 0 0 0 0 0 0 0 0 0 0 0 0 0 0 0 0 0 0 0 0 0 0 0 0 44
88 88 88 88 80 80 76 68 80 76 68 80 88 92 92 92 92 92 92 92 48 20 12 20 32 36 44 64 64 56 36 8 0 0 0 0 0 0 0 0 0 0 0 0 0 0 0 0 0 0 0 0 0 0 0 0 0 0 0 0 0 0 0 0 0 0 0 0 32
88 92 88 88 88 88 80 56 80 76 76 92 68 76 88 88 88 80 68 64 88 88 80 80 76 80 88 68 68 68 68 80 56 36 32 32 20 12 8 0 0 0 0 0 0 0 0 0 0 0 0 0 0 0 0 0 0 0 0 0 0 0 0 0 0 0 0 0 24
88 80 80 88 76 68 68 64 80 88 88 92 92 92 88 76 68 64 64 64 68 68 68 64 64 68 76 80 88 76 68 76 64 48 44 36 36 32 24 20 12 12 8 0 12 8 0 0 0 8 8 0 0 0 0 0 0 0 0 0 8 0 0 0 0 0 0 0 24
88 88 88 88 56 48 48 56 64 68 76 88 88 88 92 88 92 92 92 92 88 88 88 88 76 68 68 64 68 68 76 92 76 56 44 36 44 44 44 44 24 20 20 24 24 20 12 0 0 0 0 0 8 0 0 0 24 32 32 24 24 12 0 0 0 0 0 0 24
80 76 68 88 68 56 48 48 56 64 68 68 76 80 80 64 88 88 80 80 88 80 80 76 80 80 80 80 80 88 92 92 92 80 68 44 48 56 56 64 56 48 48 64 56 44 36 20 12 8 0 0 0 0 0 12 32 36 36 24 36 32 12 0 0 0 0 0 24
88 76 68 80 68 64 76 88 76 80 88 88 80 80 80 80 88 92 92 88 88 88 80 68 88 88 92 92 92 88 92 92 88 92 92 92 80 68 68 68 68 68 76 76 76 76 64 36 32 24 20 12 8 0 0 20 36 36 36 36 36 36 24 0 0 0 0 0 32
76 80 88 88 88 88 88 88 88 80 80 88 76 80 88 92 88 88 88 92 88 92 92 92 92 92 92 92 92 92 92 92 92 92 92 92 92 92 92 80 80 88 92 92 88 88 88 80 56 36 32 32 24 20 20 36 44 44 36 36 56 64 48 20 8 0 0 0 12
44 68 88 80 88 88 88 80 80 80 88 88 88 88 88 88 76 80 88 88 88 88 92 88 92 92 92 92 92 92 92 92 92 92 92 92 92 92 92 92 92 92 92 92 92 92 92 92 88 76 64 48 48 48 56 76 68 56 44 44 68 88 88 56 24 8 0 0 0
8 44 68 64 80 88 88 76 88 88 88 92 88 88 92 88 88 88 92 92 92 92 92 88 88 88 92 92 92 92 92 92 92 92 92 92 92 92 92 92 92 92 92 92 92 92 92 92 92 88 76 64 56 56 56 64 76 68 56 48 56 80 92 92 56 36 24 0 0
8 32 56 48 64 76 80 88 88 88 92 92 92 92 92 92 92 92 92 88 92 92 92 92 88 88 88 92 92 88 88 92 92 92 92 88 92 92 92 92 92 92 92 92 92 92 92 92 92 92 88 76 64 64 56 36 36 44 48 56 48 64 80 92 92 92 76 24 20
20 36 48 56 56 56 56 68 76 80 88 76 88 92 92 92 92 92 92 92 92 92 88 88 92 88 92 92 92 92 92 92 92 92 92 92 92 92 92 92 92 92 92 92 92 92 92 92 92 92 92 92 88 88 92 80 64 56 56 48 44 48 64 92 92 92 88 76 64
44 56 64 76 80 68 64 68 64 76 80 76 76 80 88 92 88 88 92 92 92 92 92 92 92 92 92 92 92 92 92 92 92 92 92 92 92 92 92 92 92 92 92 92 92 92 92 92 92 92 92 92 92 92 92 92 92 92 88 80 76 64 56 68 80 92 92 88 56
76 76 68 80 80 80 80 80 76 80 80 80 68 68 68 64 76 76 68 48 56 76 92 92 88 80 80 76 80 88 88 92 92 88 88 88 92 92 92 92 92 92 92 92 92 92 92 92 92 92 92 92 92 92 92 92 92 92 92 92 92 80 64 64 80 80 76 76 36
80 76 76 80 80 80 76 64 80 76 68 68 76 76 68 36 68 76 56 32 24 36 56 68 48 48 64 68 68 76 76 80 88 92 92 88 92 92 92 92 92 92 92 92 92 92 92 92 92 92 92 92 92 92 92 92 92 92 92 92 92 88 80 68 76 80 68 36 20
80 80 80 80 80 76 68 76 68 68 64 36 56 76 76 44 68 76 68 64 32 20 32 64 44 32 32 32 32 48 76 88 92 92 92 92 92 92 92 92 92 92 92 92 92 92 92 92 92 92 92 92 92 92 92 92 92 92 92 92 92 92 92 80 80 88 76 24 8
80 80 80 80 80 80 76 64 76 64 48 64 56 48 44 36 68 76 68 48 32 20 24 48 68 64 48 36 44 44 36 36 64 64 56 68 80 88 92 92 92 92 92 92 92 92 92 92 92 92 92 92 92 92 92 92 92 92 92 76 92 92 92 92 92 92 88 76 32
80 80 80 80 80 80 80 76 80 76 68 80 76 48 24 36 64 76 80 56 24 8 24 76 80 80 80 80 80 64 36 24 36 32 32 36 56 68 80 88 92 92 92 92 92 92 92 92 92 92 92 92 92 92 92 92 92 92 92 88 92 92 92 92 92 92 80 48 36
80 80 80 80 80 80 80 80 80 80 80 80 80 76 68 76 48 64 80 64 44 20 8 32 56 76 88 88 88 80 76 76 76 64 44 44 36 44 64 76 88 92 92 92 92 92 92 92 92 92 92 92 92 92 92 92 92 92 92 92 92 92 92 92 92 92 92 80 36
80 76 64 64 68 76 80 80 80 80 80 80 80 80 88 88 80 80 80 64 48 24 8 20 32 64 88 88 88 68 56 88 88 88 76 64 48 44 56 88 80 88 92 92 92 92 92 92 92 92 92 92 92 92 92 92 92 92 92 92 92 92 92 92 92 92 92 92 64
12 8 8 8 8 8 8 8 64 80 80 80 80 80 80 80 88 80 76 68 56 44 36 24 68 64 48 64 80 88 80 88 88 88 88 80 56 36 48 88 88 92 92 92 92 92 92 92 92 92 92 92 92 92 92 92 92 92 92 92 92 92 92 92 92 92 92 92 80
0 0 0 0 0 0 0 0 8 8 8 20 48 36 24 80 64 68 76 56 36 32 24 20 68 76 64 88 88 88 88 88 64 68 88 88 80 64 48 56 68 80 92 92 92 92 92 92 92 92 92 92 92 92 92 92 92 92 92 92 92 92 92 92 92 92 92 92 92
0 0 0 0 0 0 0 0 0 0 0 0 0 12 12 0 0 0 0 0 0 0 8 24 48 56 64 88 88 88 88 88 80 80 80 48 80 76 68 88 44 24 44 92 92 92 92 92 92 92 92 92 92 92 92 92 92 92 92 92 92 92 92 92 92 92 92 92 92
0 0 0 0 0 0 0 0 0 0 0 0 0 0 0 0 0 0 0 0 0 0 20 76 36 32 44 64 48 44 48 88 88 88 76 32 20 44 64 36 36 24 24 80 88 92 92 92 92 92 92 92 92 92 92 92 92 92 92 92 92 92 92 92 92 92 92 92 92
0 0 0 0 0 0 0 0 0 0 0 0 0 0 0 0 0 0 0 0 0 0 0 0 0 32 64 76 88 88 80 56 80 88 88 88 88 88 80 48 44 36 36 44 76 88 92 88 88 92 92 92 92 92 92 92 92 92 92 92 92 92 92 92 92 92 92 92 92
32 36 48 56 24 20 20 8 8 8 8 0 0 0 0 8 0 0 24 88 48 20 0 0 0 0 20 80 88 88 88 88 88 88 88 88 88 88 88 88 56 36 44 92 92 92 92 80 92 92 92 92 92 92 92 92 92 92 92 92 92 92 92 92 92 92 92 92 92
80 80 80 80 80 80 80 80 56 48 44 32 24 32 48 80 64 64 76 88 56 24 0 0 0 0 0 0 56 80 88 88 88 88 80 76 88 88 80 88 88 88 88 92 92 92 92 92 92 92 92 88 88 92 92 92 92 92 92 92 92 92 92 92 92 92 92 88 92
80 80 80 80 80 80 80 80 88 68 64 80 80 80 80 80 80 88 80 76 68 56 36 12 0 0 0 0 0 36 76 80 88 88 88 80 88 68 64 88 88 88 88 92 92 92 92 92 92 92 92 92 80 88 92 92 92 92 92 92 92 92 92 92 92 92 92 92 92
80 76 68 76 76 76 80 80 80 80 80 80 68 68 76 76 76 76 48 0 64 80 76 76 24 8 0 0 0 0 12 48 68 80 88 88 88 88 88 88 88 88 88 88 88 92 92 92 92 92 92 80 76 76 76 80 88 92 92 92 92 92 92 92 92 92 92 92 92
64 32 12 48 48 56 68 80 80 80 76 64 12 20 36 36 36 20 0 0 48 48 36 36 24 20 12 0 0 0 0 8 20 44 76 88 88 88 88 88 88 88 88 88 88 88 92 92 92 92 92 92 80 80 80 80 88 92 92 92 92 92 92 92 92 92 92 92 92
0 0 12 64 56 56 56 76 64 68 64 12 0 0 0 0 0 0 0 0 0 20 36 44 32 24 20 12 0 0 8 32 24 24 36 76 80 88 88 88 88 88 88 88 88 88 92 92 92 92 92 88 92 92 92 92 92 92 92 92 92 92 92 92 92 92 92 92 92
0 0 0 0 0 0 8 44 8 24 36 0 0 0 0 0 0 0 0 0 0 20 36 32 68 48 20 24 12 8 8 24 36 48 56 48 76 88 88 88 64 56 68 88 88 88 88 92 92 92 92 88 88 92 92 88 88 92 92 88 92 92 92 92 92 92 92 92 92
0 0 0 0 0 0 0 0 0 0 0 0 0 0 0 0 0 0 0 0 0 24 48 36 76 64 44 44 44 24 12 20 24 48 68 44 64 76 88 88 32 12 32 88 88 88 88 88 92 92 92 88 88 88 88 88 88 88 92 92 92 88 88 92 92 92 92 92 92
0 0 0 0 0 0 0 0 0 0 0 0 0 0 0 0 0 0 0 0 0 36 80 80 80 80 80 80 80 64 36 12 24 48 68 44 36 48 68 76 44 32 44 88 88 88 88 88 92 92 92 88 88 88 88 88 88 88 92 92 92 92 88 88 92 92 92 92 92
0 0 0 0 0 0 0 0 0 0 0 0 0 0 0 0 0 0 0 0 0 24 64 80 80 80 76 80 80 68 48 44 32 44 64 68 24 20 32 56 64 44 36 88 88 88 80 80 88 88 88 88 88 88 88 88 88 88 88 88 92 92 92 92 92 92 92 92 92
0 0 0 0 0 0 0 0 0 0 0 0 0 0 0 0 0 0 0 0 0 8 32 80 68 68 76 80 80 56 44 80 64 48 44 48 20 8 20 44 56 48 36 56 80 88 88 80 76 80 88 88 88 88 88 88 88 88 88 88 88 92 92 88 92 92 92 92 92